This is the latest recevied weather packets stored in our database for station/object KB1YYC. If no packets are shown the sender has not sent any weather packets the latest 10 day(s).
| Time | Temp. | Humidity | Pressure | Rain* | Wind** | Luminosity | Snow |
|---|---|---|---|---|---|---|---|
| 1777937868 | 17.78° C | 40% | 1006.3 hPa | 0 mm | - | 5 W/m² | - |
| 1777937563 | 18.33° C | 40% | 1006.3 hPa | 0 mm | - | 7 W/m² | - |
| 1777937261 | 18.89° C | 40% | 1006.2 hPa | 0 mm | - | 8 W/m² | - |
| 1777936957 | 19.44° C | 38% | 1006.2 hPa | 0 mm | - | 10 W/m² | - |
| 1777936655 | 19.44° C | 38% | 1006 hPa | 0 mm | - | 14 W/m² | - |
| 1777936351 | 20° C | 37% | 1005.9 hPa | 0 mm | - | 16 W/m² | - |
| 1777936047 | 20° C | 36% | 1005.7 hPa | 0 mm | - | 18 W/m² | - |
| 1777935746 | 20° C | 35% | 1005.8 hPa | 0 mm | - | 22 W/m² | - |
| 1777935444 | 20° C | 34% | 1005.7 hPa | 0 mm | - | 26 W/m² | - |
| 1777935140 | 20.56° C | 35% | 1005.6 hPa | 0 mm | - | 35 W/m² | - |
| 1777934837 | 20.56° C | 35% | 1005.4 hPa | 0 mm | - | 47 W/m² | - |
| 1777934535 | 20.56° C | 35% | 1005.5 hPa | 0 mm | - | 44 W/m² | - |
| 1777934231 | 20.56° C | 35% | 1005.6 hPa | 0 mm | - | 35 W/m² | - |
| 1777933926 | 20.56° C | 36% | 1005.5 hPa | 0 mm | - | 45 W/m² | - |
| 1777933623 | 20.56° C | 34% | 1005.6 hPa | 0 mm | - | 49 W/m² | - |
| 1777933320 | 20.56° C | 35% | 1005.5 hPa | 0 mm | - | 55 W/m² | - |
| 1777933018 | 20.56° C | 34% | 1005.5 hPa | 0 mm | - | 52 W/m² | - |
| 1777932715 | 20.56° C | 33% | 1005.5 hPa | 0 mm | - | 54 W/m² | - |
| 1777932411 | 21.11° C | 33% | 1005.5 hPa | 0 mm | - | 54 W/m² | - |
| 1777932109 | 21.11° C | 33% | 1005.4 hPa | 0 mm | - | 46 W/m² | - |
| 1777931805 | 21.11° C | 33% | 1005.6 hPa | 0 mm | - | 46 W/m² | - |
| 1777931502 | 20.56° C | 33% | 1005.5 hPa | 0 mm | - | 49 W/m² | - |
| 1777931198 | 21.11° C | 33% | 1005.4 hPa | 0 mm | - | 42 W/m² | - |
| 1777930894 | 21.11° C | 33% | 1005.5 hPa | 0 mm | - | 45 W/m² | - |
| 1777930591 | 20.56° C | 33% | 1005.5 hPa | 0 mm | - | 47 W/m² | - |
* Rain latest hour (hover to see other rain measurements)
** Current wind speed in m/s (hover to see current wind gust speed)